�������l�o���
Date,Time,MP-1(��Sv/h),MP-2(��Sv/h),MP-3(��Sv/h),MP-4(��Sv/h),MP-5(��Sv/h),MP-6(��Sv/h),MP-7(��Sv/h),MP-8(��Sv/h),����,����(m/s),���J
2017/09/03,00:00,0.915,1.443,0.944,1.737,1.187,0.506,0.928,0.860,�k�k��,9.3,��
2017/09/03,00:10,0.917,1.440,0.945,1.736,1.188,0.505,0.926,0.861,�k�k��,10.3,��
2017/09/03,00:20,0.914,1.442,0.944,1.739,1.189,0.507,0.929,0.861,�k�k��,8.8,��
2017/09/03,00:30,0.916,1.441,0.944,1.736,1.188,0.506,0.929,0.862,�k�k��,9.2,��
2017/09/03,00:40,0.917,1.443,0.945,1.738,1.187,0.503,0.928,0.861,�k�k��,9.1,��
2017/09/03,00:50,0.915,1.443,0.946,1.738,1.189,0.506,0.929,0.861,�k��,9.8,��
2017/09/03,01:00,0.918,1.442,0.944,1.738,1.187,0.506,0.929,0.862,�k�k��,10.4,��
2017/09/03,01:10,0.919,1.442,0.944,1.737,1.190,0.505,0.926,0.862,�k�k��,10.9,��
2017/09/03,01:20,0.917,1.443,0.943,1.737,1.190,0.505,0.926,0.862,�k�k��,10.4,��
2017/09/03,01:30,0.915,1.443,0.945,1.739,1.188,0.505,0.929,0.860,�k�k��,9.1,��
2017/09/03,01:40,0.917,1.442,0.943,1.738,1.189,0.507,0.929,0.860,�k��,7.9,��
2017/09/03,01:50,0.916,1.444,0.945,1.739,1.190,0.506,0.928,0.862,�k�k��,7.6,��
2017/09/03,02:00,0.914,1.443,0.943,1.740,1.189,0.505,0.929,0.861,�k�k��,7.4,��
2017/09/03,02:10,0.915,1.446,0.945,1.738,1.189,0.508,0.929,0.860,�k�k��,8.3,��
2017/09/03,02:20,0.916,1.443,0.945,1.740,1.189,0.507,0.928,0.861,�k��,8.2,��
2017/09/03,02:30,0.917,1.443,0.945,1.740,1.189,0.506,0.929,0.861,�k��,8.4,��
2017/09/03,02:40,0.916,1.444,0.943,1.740,1.189,0.506,0.932,0.859,�k��,8.9,��
2017/09/03,02:50,0.916,1.444,0.945,1.740,1.190,0.508,0.930,0.860,�k��,8.6,��
2017/09/03,03:00,0.916,1.444,0.944,1.741,1.190,0.507,0.929,0.862,�k��,6.8,��
2017/09/03,03:10,0.915,1.443,0.944,1.742,1.188,0.505,0.930,0.862,�k�k��,7.3,��
2017/09/03,03:20,0.916,1.442,0.945,1.740,1.189,0.506,0.930,0.862,�k�k��,7.3,��
2017/09/03,03:30,0.916,1.443,0.946,1.743,1.188,0.506,0.930,0.861,�k�k��,7.9,��
2017/09/03,03:40,0.916,1.443,0.945,1.740,1.188,0.507,0.929,0.862,�k�k��,6.9,��
2017/09/03,03:50,0.916,1.442,0.944,1.742,1.187,0.506,0.930,0.861,�k�k��,8.0,��
2017/09/03,04:00,0.915,1.445,0.945,1.739,1.189,0.507,0.931,0.862,�k�k��,9.0,��
2017/09/03,04:10,0.915,1.444,0.945,1.741,1.191,0.507,0.932,0.861,�k��,9.9,��
2017/09/03,04:20,0.915,1.446,0.945,1.744,1.190,0.507,0.929,0.862,�k�k��,9.4,��
2017/09/03,04:30,0.916,1.443,0.943,1.741,1.188,0.508,0.932,0.860,�k�k��,10.0,��
2017/09/03,04:40,0.915,1.446,0.945,1.741,1.192,0.507,0.930,0.860,�k�k��,8.8,��
2017/09/03,04:50,0.918,1.444,0.943,1.743,1.190,0.506,0.929,0.859,�k�k��,8.8,��
2017/09/03,05:00,0.915,1.443,0.944,1.742,1.189,0.507,0.930,0.861,�k�k��,8.8,��
2017/09/03,05:10,0.915,1.444,0.944,1.740,1.191,0.508,0.929,0.861,�k�k��,9.0,��
2017/09/03,05:20,0.917,1.443,0.946,1.741,1.190,0.508,0.930,0.860,�k�k��,9.5,��
2017/09/03,05:30,0.918,1.445,0.946,1.740,1.191,0.506,0.929,0.861,�k�k��,9.7,��
2017/09/03,05:40,0.916,1.444,0.945,1.742,1.193,0.506,0.931,0.863,�k�k��,8.7,��
2017/09/03,05:50,0.916,1.446,0.945,1.744,1.189,0.509,0.931,0.863,�k�k��,7.9,��
2017/09/03,06:00,0.916,1.444,0.947,1.743,1.189,0.508,0.930,0.861,�k�k��,7.5,��
2017/09/03,06:10,0.915,1.445,0.945,1.743,1.190,0.507,0.930,0.861,�k�k��,7.3,��
2017/09/03,06:20,0.918,1.444,0.945,1.744,1.192,0.505,0.930,0.861,�k�k��,5.5,��
2017/09/03,06:30,0.916,1.446,0.949,1.742,1.190,0.507,0.931,0.862,�k�k��,5.8,��
2017/09/03,06:40,0.918,1.445,0.945,1.745,1.193,0.507,0.933,0.862,�k�k��,5.9,��
2017/09/03,06:50,0.918,1.447,0.947,1.745,1.190,0.506,0.930,0.861,�k�k��,6.1,��
2017/09/03,07:00,0.917,1.448,0.947,1.743,1.192,0.507,0.932,0.862,�k�k��,6.7,��
2017/09/03,07:10,0.918,1.444,0.949,1.747,1.192,0.505,0.932,0.862,�k�k��,5.5,��
2017/09/03,07:20,0.917,1.445,0.947,1.746,1.190,0.505,0.932,0.862,�k�k��,4.6,��
2017/09/03,07:30,0.919,1.445,0.948,1.745,1.190,0.504,0.932,0.863,�k�k��,4.6,��
2017/09/03,07:40,0.919,1.448,0.948,1.747,1.191,0.506,0.932,0.861,�k�k��,5.1,��
2017/09/03,07:50,0.920,1.446,0.947,1.745,1.192,0.506,0.933,0.863,�k�k��,4.6,��
2017/09/03,08:00,0.921,1.449,0.947,1.746,1.195,0.505,0.932,0.864,�k�k��,5.2,��
2017/09/03,08:10,0.920,1.447,0.946,1.747,1.192,0.506,0.930,0.864,�k�k��,4.5,��
2017/09/03,08:20,0.918,1.448,0.945,1.745,1.196,0.505,0.932,0.863,�k,5.6,��
2017/09/03,08:30,0.919,1.448,0.948,1.750,1.196,0.506,0.932,0.862,�k�k��,5.9,��
2017/09/03,08:40,0.917,1.450,0.948,1.748,1.197,0.507,0.931,0.860,�k,5.5,��
2017/09/03,08:50,0.918,1.449,0.949,1.747,1.197,0.508,0.932,0.859,�k,5.2,��
2017/09/03,09:00,0.922,1.451,0.946,1.748,1.195,0.507,0.932,0.861,�k�k��,6.0,��
2017/09/03,09:10,0.920,1.453,0.947,1.750,1.196,0.508,0.933,0.860,�k�k��,6.2,��
2017/09/03,09:20,0.920,1.456,0.949,1.749,1.193,0.507,0.932,0.860,�k�k��,5.4,��
2017/09/03,09:30,0.923,1.454,0.948,1.751,1.196,0.508,0.935,0.862,�k�k��,5.1,��
2017/09/03,09:40,0.921,1.454,0.950,1.752,1.200,0.508,0.933,0.862,�k�k��,3.9,��
2017/09/03,09:50,0.923,1.458,0.949,1.750,1.199,0.508,0.934,0.862,�k��,3.8,��
2017/09/03,10:00,0.923,1.459,0.950,1.750,1.200,0.507,0.935,0.860,���k��,4.3,��
2017/09/03,10:10,0.924,1.459,0.950,1.749,1.200,0.508,0.934,0.860,���k��,3.4,��
2017/09/03,10:20,0.923,1.459,0.952,1.752,1.204,0.505,0.934,0.862,���k��,4.0,��
2017/09/03,10:30,0.927,1.460,0.950,1.752,1.203,0.508,0.934,0.862,���k��,3.9,��
2017/09/03,10:40,0.924,1.459,0.952,1.752,1.205,0.509,0.934,0.861,�k��,3.9,��
2017/09/03,10:50,0.926,1.460,0.951,1.754,1.205,0.508,0.934,0.862,�k��,2.6,��
2017/09/03,11:00,0.926,1.462,0.950,1.753,1.207,0.509,0.935,0.862,���쓌,2.3,��
2017/09/03,11:10,0.925,1.460,0.952,1.752,1.205,0.509,0.935,0.860,���쓌,2.3,��
2017/09/03,11:20,0.927,1.465,0.952,1.753,1.206,0.509,0.935,0.862,��,2.3,��
2017/09/03,11:30,0.927,1.462,0.951,1.755,1.207,0.509,0.934,0.862,��,2.2,��
2017/09/03,11:40,0.929,1.462,0.953,1.756,1.208,0.509,0.936,0.861,��,2.8,��
2017/09/03,11:50,0.928,1.465,0.953,1.751,1.210,0.509,0.937,0.864,��,2.8,��
2017/09/03,12:00,0.928,1.463,0.954,1.751,1.205,0.510,0.937,0.863,��,2.9,��
2017/09/03,12:10,0.931,1.467,0.954,1.752,1.209,0.508,0.934,0.863,���쓌,2.3,��
2017/09/03,12:20,0.930,1.465,0.956,1.748,1.209,0.510,0.936,0.864,��,2.3,��
2017/09/03,12:30,0.930,1.466,0.955,1.752,1.213,0.509,0.937,0.863,���쓌,2.8,��
2017/09/03,12:40,0.931,1.469,0.955,1.752,1.212,0.509,0.937,0.863,��,2.6,��
2017/09/03,12:50,0.929,1.471,0.954,1.754,1.214,0.511,0.937,0.864,�쓌,3.4,��
2017/09/03,13:00,0.929,1.469,0.957,1.757,1.212,0.511,0.938,0.864,�쓌,2.3,��
2017/09/03,13:10,0.932,1.469,0.955,1.758,1.211,0.510,0.937,0.864,���쓌,2.2,��
2017/09/03,13:20,0.931,1.471,0.958,1.755,1.216,0.510,0.936,0.863,���쓌,2.0,��
2017/09/03,13:30,0.932,1.473,0.956,1.757,1.217,0.510,0.939,0.863,��쓌,4.2,��
2017/09/03,13:40,0.934,1.471,0.957,1.756,1.212,0.511,0.938,0.863,��쓌,4.8,��
2017/09/03,13:50,0.933,1.473,0.956,1.757,1.215,0.511,0.937,0.862,��쓌,5.5,��
2017/09/03,14:00,0.933,1.472,0.959,1.759,1.214,0.511,0.937,0.864,��쓌,5.9,��
2017/09/03,14:10,0.934,1.473,0.959,1.758,1.217,0.512,0.938,0.861,��쓌,6.1,��
2017/09/03,14:20,0.934,1.474,0.959,1.759,1.218,0.512,0.938,0.865,��,6.0,��
2017/09/03,14:30,0.934,1.473,0.959,1.758,1.216,0.512,0.938,0.863,��쓌,7.3,��
2017/09/03,14:40,0.934,1.474,0.958,1.762,1.218,0.512,0.938,0.865,��쓌,7.2,��
2017/09/03,14:50,0.933,1.474,0.960,1.758,1.218,0.511,0.937,0.862,��쓌,8.1,��
2017/09/03,15:00,0.935,1.474,0.959,1.760,1.218,0.512,0.939,0.864,��쓌,7.0,��
2017/09/03,15:10,0.933,1.476,0.959,1.760,1.217,0.513,0.938,0.863,��쓌,7.0,��
2017/09/03,15:20,0.934,1.476,0.958,1.758,1.218,0.514,0.938,0.865,��쓌,6.3,��
2017/09/03,15:30,0.935,1.480,0.960,1.760,1.215,0.513,0.938,0.864,��쓌,6.3,��
2017/09/03,15:40,0.935,1.476,0.961,1.757,1.217,0.512,0.938,0.863,��쓌,6.4,��
2017/09/03,15:50,0.934,1.478,0.960,1.759,1.216,0.512,0.936,0.864,��쓌,6.1,��
2017/09/03,16:00,0.935,1.478,0.959,1.756,1.218,0.511,0.937,0.862,��쓌,6.5,��
2017/09/03,16:10,0.934,1.476,0.959,1.759,1.216,0.512,0.938,0.864,��쓌,7.4,��
2017/09/03,16:20,0.935,1.477,0.961,1.757,1.220,0.513,0.938,0.863,��쓌,7.1,��
2017/09/03,16:30,0.935,1.479,0.960,1.758,1.218,0.513,0.938,0.866,��,5.7,��
2017/09/03,16:40,0.937,1.475,0.961,1.757,1.218,0.514,0.936,0.862,��,5.9,��
2017/09/03,16:50,0.934,1.475,0.960,1.758,1.219,0.514,0.938,0.862,��쓌,5.7,��
2017/09/03,17:00,0.934,1.477,0.960,1.758,1.217,0.514,0.938,0.864,��,5.7,��
2017/09/03,17:10,0.934,1.477,0.960,1.759,1.216,0.512,0.937,0.864,��,5.0,��
2017/09/03,17:20,0.935,1.478,0.961,1.758,1.217,0.515,0.936,0.864,��쓌,3.3,��
2017/09/03,17:30,0.934,1.482,0.959,1.758,1.216,0.514,0.938,0.864,��쓌,4.6,��
2017/09/03,17:40,0.933,1.479,0.961,1.762,1.217,0.515,0.934,0.866,��쓌,4.2,��
2017/09/03,17:50,0.932,1.479,0.961,1.761,1.217,0.516,0.937,0.866,��,4.4,��
2017/09/03,18:00,0.932,1.480,0.961,1.762,1.217,0.515,0.938,0.866,��,3.6,��
2017/09/03,18:10,0.934,1.479,0.961,1.761,1.220,0.512,0.938,0.866,��쐼,2.6,��
2017/09/03,18:20,0.932,1.480,0.962,1.761,1.221,0.513,0.939,0.868,���쐼,2.0,��
2017/09/03,18:30,0.933,1.481,0.963,1.763,1.221,0.514,0.938,0.866,��,2.6,��
2017/09/03,18:40,0.936,1.479,0.963,1.763,1.219,0.514,0.940,0.866,���k��,2.3,��
2017/09/03,18:50,0.937,1.479,0.961,1.759,1.221,0.515,0.939,0.867,��,3.1,��
2017/09/03,19:00,0.936,1.479,0.961,1.763,1.220,0.515,0.940,0.866,���k��,2.9,��
2017/09/03,19:10,0.937,1.479,0.963,1.761,1.219,0.515,0.941,0.866,���k��,4.0,��
2017/09/03,19:20,0.935,1.477,0.961,1.761,1.217,0.517,0.940,0.867,���k��,3.2,��
2017/09/03,19:30,0.937,1.478,0.961,1.759,1.221,0.513,0.940,0.867,�k�k��,3.7,��
2017/09/03,19:40,0.936,1.479,0.962,1.763,1.221,0.513,0.939,0.866,�k��,4.9,��
2017/09/03,19:50,0.937,1.477,0.961,1.762,1.222,0.514,0.938,0.866,�k��,4.1,��
2017/09/03,20:00,0.937,1.476,0.962,1.762,1.219,0.513,0.939,0.865,���k��,3.4,��
2017/09/03,20:10,0.935,1.480,0.962,1.762,1.221,0.513,0.939,0.866,���k��,3.4,��
2017/09/03,20:20,0.934,1.474,0.963,1.759,1.219,0.514,0.939,0.865,���k��,3.2,��
2017/09/03,20:30,0.937,1.477,0.962,1.761,1.220,0.513,0.938,0.866,���k��,3.4,��
2017/09/03,20:40,0.935,1.478,0.960,1.762,1.219,0.514,0.940,0.863,���k��,3.7,��
2017/09/03,20:50,0.936,1.476,0.961,1.763,1.221,0.512,0.938,0.865,���k��,4.7,��
2017/09/03,21:00,0.933,1.477,0.962,1.760,1.219,0.514,0.938,0.865,���k��,4.7,��
2017/09/03,21:10,0.936,1.475,0.960,1.762,1.217,0.513,0.939,0.864,���k��,4.2,��
2017/09/03,21:20,0.933,1.478,0.961,1.763,1.222,0.515,0.939,0.866,�k��,4.5,��
2017/09/03,21:30,0.935,1.476,0.961,1.761,1.219,0.512,0.938,0.867,�k��,5.5,��
2017/09/03,21:40,0.935,1.476,0.960,1.761,1.220,0.512,0.938,0.865,�k��,5.2,��
2017/09/03,21:50,0.935,1.474,0.961,1.763,1.218,0.511,0.937,0.865,���k��,4.4,��
2017/09/03,22:00,0.934,1.477,0.959,1.759,1.220,0.512,0.939,0.866,���k��,5.3,��
2017/09/03,22:10,0.934,1.476,0.960,1.762,1.219,0.513,0.939,0.865,�k��,6.0,��
2017/09/03,22:20,0.933,1.479,0.960,1.762,1.218,0.512,0.939,0.865,�k��,6.8,��
2017/09/03,22:30,0.933,1.476,0.961,1.761,1.218,0.512,0.937,0.865,�k��,6.9,��
2017/09/03,22:40,0.933,1.476,0.961,1.764,1.219,0.512,0.938,0.864,�k��,7.2,��
2017/09/03,22:50,0.932,1.476,0.961,1.761,1.220,0.512,0.937,0.865,�k��,7.4,��
2017/09/03,23:00,0.937,1.476,0.962,1.760,1.218,0.511,0.939,0.866,�k��,7.3,��
2017/09/03,23:10,0.934,1.476,0.963,1.762,1.216,0.514,0.936,0.864,�k��,8.1,��
2017/09/03,23:20,0.935,1.477,0.960,1.757,1.216,0.511,0.939,0.864,�k��,6.7,��
2017/09/03,23:30,0.934,1.477,0.960,1.761,1.220,0.511,0.938,0.868,�k��,6.4,��
2017/09/03,23:40,0.933,1.476,0.961,1.763,1.219,0.512,0.940,0.866,���k��,6.5,��
2017/09/03,23:50,0.934,1.475,0.960,1.763,1.221,0.512,0.937,0.865,���k��,6.2,��
